Regional Weather Roundup
Issued by NWS

Home | Current Version | Previous Version | Graphics & Text | Print | Product List | Glossary Off
Versions: 1 2 3 4 5 6 7 8 9 10 11 12 13 14 15 16 17 18 19 20 21 22 23 24 25 26 27 28 29 30 31 32 33 34 35 36 37 38 39 40 41 42 43 44 45 46 47 48 49 50

000
ASUS43 KLSX 262357
RWRMO

WEATHER SUMMARY FOR MISSOURI
NATIONAL WEATHER SERVICE SPRINGFIELD MO
700 PM CDT SUN MAR 26 2017

NOTE: "FAIR" INDICATES FEW OR NO CLOUDS BELOW 12,000 FEET WITH NO
       SIGNIFICANT WEATHER AND/OR OBSTRUCTIONS TO VISIBILITY.
       CURRENT SKY AND/OR WEATHER CONDITIONS ARE NOT AVAILABLE FOR
       CHILLICOTHE AND FARMINGTON.

MOZ001>031-035>038-043-044-053-054-270100-
...NORTHERN AND WESTERN MISSOURI...

CITY           SKY/WX    TMP DP  RH WIND       PRES   REMARKS
KANSAS CTY INT CLOUDY    51  44  77 E5        29.91R
6HR MIN TEMP:  49; 6HR MAX TEMP:  52;

LEE`S SUMMIT   CLOUDY    54  45  71 E6        29.89R
6HR MIN TEMP:  51; 6HR MAX TEMP:  54;

ST JOSEPH      CLOUDY    49  43  80 N3        29.92R
6HR MIN TEMP:  48; 6HR MAX TEMP:  50;

CHILLICOTHE      N/A     51  44  77 CALM      29.94R
6HR MIN TEMP:  48; 6HR MAX TEMP:  52;


$$
MOZ066>068-077>081-088>096-101>105-270100-
...SOUTHWEST MISSOURI...

CITY           SKY/WX    TMP DP  RH WIND       PRES   REMARKS
SPRINGFIELD    CLOUDY    64  50  60 E6        29.86R
6HR MIN TEMP:  59; 6HR MAX TEMP:  67;

JOPLIN         MOCLDY    65  50  58 E9        29.80F
6HR MIN TEMP:  62; 6HR MAX TEMP:  68; 6HR PCP: TRACE;

BRANSON        MOCLDY    64  50  59 SE6       29.88S

$$
MOZ032>034-039>042-045>050-055>058-069>072-270100-
...CENTRAL MISSOURI...

CITY           SKY/WX    TMP DP  RH WIND       PRES   REMARKS
COLUMBIA       NOT AVBL
JEFFERSON CITY CLOUDY    61  48  62 NW5       29.92R
6HR MIN TEMP:  56; 6HR MAX TEMP:  63;

ROLLA          PTCLDY    61  50  67 CALM      29.90R
6HR MIN TEMP:  58; 6HR MAX TEMP:  63;

SEDALIA        CLOUDY    57  48  72 CALM      29.91S
6HR MIN TEMP:  54; 6HR MAX TEMP:  57;

WHITEMAN AFB   PTCLDY    55  54  94 NE3       29.89R
WARRENSBURG    CLOUDY    54  45  71 CALM      29.90S

$$
MOZ051-052-059>065-270100-
...EAST CENTRAL MISSOURI...

CITY           SKY/WX    TMP DP  RH WIND       PRES   REMARKS
ST LOUIS INTL  MOCLDY    62  49  62 W3        29.92S
6HR MIN TEMP:  59; 6HR MAX TEMP:  64;


$$
MOZ072>076-082>087-097>100-106>115-270100-
...SOUTH CENTRAL AND SOUTHEAST MISSOURI...

CITY           SKY/WX    TMP DP  RH WIND       PRES   REMARKS
CAPE GIRARDEAU CLOUDY    60  50  69 S3        29.95R
6HR MIN TEMP:  58; 6HR MAX TEMP:  64;

POPLAR BLUFF   CLOUDY    64  53  67 S5        29.94R
6HR MIN TEMP:  59; 6HR MAX TEMP:  66;

WEST PLAINS    CLOUDY    64  48  56 CALM      29.92S
6HR MIN TEMP:  58; 6HR MAX TEMP:  66;


$$



USA.gov is the U.S. government's official web portal to all federal, state and local government web resources and services.